Waarnemingen

Advertentie
Mijn weer
Ölands Södra Udde, Zweden (2644): temperatuur & dauwpunt: 19.05.2018 12:00:00 - 25.05.2018 12:00:00 (CEST)Ölands Södra Udde, Zweden (2644): windsnelheid & windstoten: 19.05.2018 12:00:00 - 25.05.2018 12:00:00 (CEST)Ölands Södra Udde, Zweden (2644): windrichting: 19.05.2018 12:00:00 - 25.05.2018 12:00:00 (CEST)Ölands Södra Udde, Zweden (2644): luchtdruk: 19.05.2018 12:00:00 - 25.05.2018 12:00:00 (CEST)Ölands Södra Udde, Zweden (2644): zicht: 19.05.2018 12:00:00 - 25.05.2018 12:00:00 (CEST)Ölands Södra Udde, Zweden (2644): neerslag: 19.05.2018 12:00:00 - 25.05.2018 12:00:00 (CEST)
Datum & Tijd tt [°C] td [°C] ff [km/u] ff [kn] fx [km/u] fx [kn] dd ppp [hPa] vv [km] rr [mm]
25.05.2018 12:00:00 15,8 11,4 36 20 47 26 NO 1026,5 37 0,0
25.05.2018 11:00:00 16,0 10,1 34 18 42 23 NO 1026,7 36 0,0
25.05.2018 10:00:00 16,3 9,7 31 17 41 22 NNO 1026,6 38 0,0
25.05.2018 09:00:00 15,8 8,8 28 15 35 19 NO 1026,8 36 0,0
25.05.2018 08:00:00 14,9 8,8 18 10 29 16 NNO 1026,9 36 0,0
25.05.2018 07:00:00 12,7 8,8 18 10 29 16 NNO 1027,0 43 0,0
25.05.2018 06:00:00 11,3 7,6 18 10 23 12 NNO 1027,1 49 0,0
25.05.2018 05:00:00 7,6 6,9 14 7 20 11 N 1027,1 30 0,0
25.05.2018 04:00:00 7,7 6,5 16 9 20 11 N 1027,3 50 0,0
25.05.2018 03:00:00 8,4 6,4 10 5 16 9 N 1027,4 50 0,0
25.05.2018 02:00:00 8,7 7,0 10 5 13 7 NNO 1027,9 50 0,0
25.05.2018 01:00:00 7,9 6,8 12 7 14 8 NO 1028,0 49 0,0
25.05.2018 00:00:00 9,7 7,6 10 6 14 8 NO 1028,2 50 0,0
24.05.2018 23:00:00 10,0 6,7 13 7 16 9 NNO 1028,3 50 0,0
24.05.2018 22:00:00 10,4 7,1 10 6 19 10 NNO 1028,2 50 0,0
24.05.2018 21:00:00 12,0 7,3 13 7 28 15 NNO 1028,0 50 0,0
24.05.2018 20:00:00 13,7 9,3 16 9 36 19 NO 1027,8 50 0,0
24.05.2018 19:00:00 15,0 10,8 22 12 37 20 ONO 1027,9 46 0,0
24.05.2018 18:00:00 15,8 9,0 31 17 40 22 ONO 1028,1 35 0,0
24.05.2018 17:00:00 16,9 8,8 31 17 46 25 ONO 1028,5 42 0,0
24.05.2018 16:00:00 16,5 9,9 29 16 46 25 ONO 1028,9 40 0,0
24.05.2018 15:00:00 16,3 8,5 29 16 37 20 NO 1029,0 46 0,0
24.05.2018 14:00:00 15,3 10,1 27 15 42 23 ONO 1029,5 33 0,0
24.05.2018 13:00:00 15,6 10,4 33 18 42 23 ONO 1029,8 38 0,0
24.05.2018 12:00:00 16,4 9,3 29 16 37 20 NO 1030,0 35 0,0
24.05.2018 11:00:00 16,1 8,1 28 15 37 20 NO 1030,3 32 0,0
24.05.2018 10:00:00 15,6 8,6 23 12 31 17 NO 1030,2 38 0,0
24.05.2018 09:00:00 15,8 11,2 18 10 23 13 ONO 1029,9 37 0,0
24.05.2018 08:00:00 15,3 12,6 14 8 19 10 ONO 1029,7 35 0,0
24.05.2018 07:00:00 14,4 12,1 10 5 15 8 NO 1029,4 22 0,0
24.05.2018 06:00:00 12,5 11,4 8 5 23 12 NO 1029,3 8 0,0
24.05.2018 05:00:00 10,0 9,4 11 6 23 12 NNO 1028,8 3,9 0,0
24.05.2018 04:00:00 10,2 9,9 10 5 12 7 ONO 1028,4 4,5 0,0
24.05.2018 03:00:00 12,8 11,4 7 4 10 5 NO 1028,6 15 0,0
24.05.2018 02:00:00 13,7 12,3 4 2 10 5 W 1028,2 30 0,0
24.05.2018 01:00:00 13,3 12,0 6 3 9 5 ZW 1027,8 34 0,0
24.05.2018 00:00:00 13,1 12,2 4 2 10 5 ZZO 1027,5 13 0,0
23.05.2018 23:00:00 13,9 11,9 5 3 14 8 ZW 1027,2 46 0,0
23.05.2018 22:00:00 14,2 11,9 8 4 16 9 ZW 1026,6 50 0,0
23.05.2018 21:00:00 14,8 11,8 11 6 16 9 ZW 1026,1 50 0,0
23.05.2018 20:00:00 15,4 11,2 8 4 15 8 ZW 1025,7 46 0,0
23.05.2018 19:00:00 16,0 11,0 9 5 17 9 ZW 1025,7 40 0,0
23.05.2018 18:00:00 16,2 10,9 9 5 17 9 ZW 1025,6 48 0,0
23.05.2018 17:00:00 16,1 11,5 10 6 17 9 ZW 1025,6 31 0,0
23.05.2018 16:00:00 16,8 11,7 9 5 19 10 ZW 1025,5 39 0,0
23.05.2018 15:00:00 16,6 11,3 10 6 19 10 ZZW 1025,3 30 0,0
23.05.2018 14:00:00 17,0 11,7 9 5 19 10 ZW 1025,2 34 0,0
23.05.2018 13:00:00 16,5 11,4 11 6 19 10 ZZW 1025,1 37 0,0
23.05.2018 12:00:00 16,1 11,1 11 6 17 9 ZW 1024,6 39 0,0
23.05.2018 11:00:00 16,0 12,6 9 5 15 8 ZW 1024,1 33 0,0
23.05.2018 10:00:00 14,9 12,0 9 5 14 8 ZZW 1023,6 34 0,0
23.05.2018 09:00:00 14,5 12,0 9 5 13 7 ZZW 1023,1 32 0,0
23.05.2018 08:00:00 14,0 11,5 8 5 11 6 ZW 1022,4 37 0,0
23.05.2018 07:00:00 12,9 11,5 8 5 11 6 Z 1021,7 25 0,0
23.05.2018 06:00:00 13,4 11,1 5 3 9 5 W 1020,9 39 0,0
23.05.2018 05:00:00 12,3 10,7 3 2 9 5 Z 1020,7 48 0,0
23.05.2018 04:00:00 12,6 10,3 3 2 13 7 ZW 1020,4 50 0,0
23.05.2018 03:00:00 12,8 10,3 7 4 13 7 W 1020,0 50 0,0
23.05.2018 02:00:00 12,6 10,3 7 4 11 6 W 1019,9 50 0,0
23.05.2018 01:00:00 12,6 10,0 6 3 12 6 W 1019,9 50 0,0
23.05.2018 00:00:00 12,7 10,1 7 4 12 6 W 1019,8 50 0,0
22.05.2018 23:00:00 12,7 9,9 3 2 10 6 W 1019,4 50 0,0
22.05.2018 22:00:00 12,4 9,9 4 2 14 8 ZW 1019,3 49 0,0
22.05.2018 21:00:00 13,3 10,1 10 5 16 9 ZO 1018,7 50 0,0
22.05.2018 20:00:00 13,8 10,6 11 6 18 10 ZO 1018,6 47 0,0
22.05.2018 19:00:00 14,1 11,1 14 8 18 10 OZO 1018,4 36 0,0
22.05.2018 18:00:00 14,4 10,6 13 7 18 10 O 1018,6 46 0,0
22.05.2018 17:00:00 15,3 10,5 15 8 18 10 O 1018,6 42 0,0
22.05.2018 16:00:00 15,3 10,5 13 7 18 10 O 1018,7 38 0,0
22.05.2018 15:00:00 15,3 9,9 14 7 21 12 O 1019,0 37 0,0
22.05.2018 14:00:00 14,4 10,4 15 8 21 12 O 1019,4 39 0,0
22.05.2018 13:00:00 14,3 11,3 17 9 22 12 O 1019,5 38 0,0
22.05.2018 12:00:00 14,6 11,2 16 9 24 13 ONO 1019,5 32 0,0
22.05.2018 11:00:00 14,5 10,7 16 8 24 13 ONO 1019,8 30 0,0
22.05.2018 10:00:00 14,6 10,4 14 8 23 13 ONO 1019,8 36 0,0
22.05.2018 09:00:00 14,1 9,9 16 8 23 13 ONO 1019,9 33 0,0
22.05.2018 08:00:00 14,0 10,4 18 10 22 12 ONO 1019,9 35 0,0
22.05.2018 07:00:00 13,4 10,8 14 8 25 14 NO 1020,0 37 0,0
22.05.2018 06:00:00 12,0 9,6 11 6 26 14 N 1020,4 48 0,0
22.05.2018 05:00:00 12,1 9,3 21 12 26 14 ONO 1020,3 50 0,0
22.05.2018 04:00:00 11,8 8,3 21 11 27 15 ONO 1020,6 50 0,0
22.05.2018 03:00:00 12,4 7,5 18 10 27 15 ONO 1021,1 50 0,0
22.05.2018 02:00:00 11,4 8,1 18 10 26 14 NO 1021,7 50 0,0
22.05.2018 01:00:00 13,5 9,5 19 10 28 15 ONO 1022,3 50 0,0
22.05.2018 00:00:00 13,7 9,3 22 12 28 15 O 1022,9 50 0,0
21.05.2018 23:00:00 13,1 9,0 18 10 21 12 ONO 1023,3 50 0,0
21.05.2018 22:00:00 10,1 6,1 16 8 21 11 NO 1023,6 50 0,0
21.05.2018 21:00:00 11,6 7,3 17 9 23 13 NO 1023,8 50 0,0
21.05.2018 20:00:00 14,6 8,1 16 9 23 13 ONO 1024,0 50 0,0
21.05.2018 19:00:00 14,7 8,0 18 10 23 13 ONO 1024,5 44 0,0
21.05.2018 18:00:00 15,0 8,0 19 10 25 13 ONO 1025,0 50 0,0
21.05.2018 17:00:00 15,1 8,8 19 10 25 13 ONO 1025,5 35 0,0
21.05.2018 16:00:00 16,0 7,5 21 12 25 13 O 1026,2 43 0,0
21.05.2018 15:00:00 16,5 7,4 18 10 22 12 ONO 1026,8 45 0,0
21.05.2018 14:00:00 15,7 7,5 16 9 21 11 ONO 1027,5 39 0,0
21.05.2018 13:00:00 15,2 8,0 16 9 22 12 O 1028,0 39 0,0
21.05.2018 12:00:00 15,1 8,3 18 10 22 12 ONO 1028,6 44 0,0
21.05.2018 11:00:00 14,7 8,2 16 8 19 10 ONO 1029,0 49 0,0
21.05.2018 10:00:00 14,2 7,7 15 8 20 11 O 1029,3 46 0,0
21.05.2018 09:00:00 13,8 7,8 16 9 20 11 ONO 1029,3 39 0,0
21.05.2018 08:00:00 13,9 8,5 11 6 14 7 ONO 1029,2 43 0,0
21.05.2018 07:00:00 12,7 5,8 6 4 9 5 ONO 1029,2 19 0,0
21.05.2018 06:00:00 11,7 1,6 4 2 6 3 N 1028,9 45 0,0
21.05.2018 05:00:00 11,4 -1,4 2 1 10 5 NO 1028,6 50 0,0
21.05.2018 04:00:00 11,4 3,2 6 3 10 5 N 1028,6 50 0,0
21.05.2018 03:00:00 11,6 6,3 8 4 10 5 N 1028,6 50 0,0
21.05.2018 02:00:00 12,1 2,5 6 3 8 5 N 1028,8 50 0,0
21.05.2018 01:00:00 10,8 7,5 5 3 6 4 N 1028,7 50 0,0
21.05.2018 00:00:00 11,0 8,7 0 0 4 2 N 1028,8 50 0,0
20.05.2018 23:00:00 10,4 7,8 0 0 0 0 N 1028,8 50 0,0
20.05.2018 22:00:00 10,9 6,3 0 0 4 2 N 1028,8 14 0,0
20.05.2018 21:00:00 12,8 5,5 0 0 7 4 N 1028,6 50 0,0
20.05.2018 20:00:00 12,9 6,0 4 2 9 5 ZZW 1028,7 50 0,0
20.05.2018 19:00:00 13,5 4,9 5 3 11 6 ZZW 1028,9 48 0,0
20.05.2018 18:00:00 13,9 5,3 6 4 13 7 ZZW 1029,0 49 0,0
20.05.2018 17:00:00 14,1 5,5 9 5 13 7 ZZW 1029,2 41 0,0
20.05.2018 16:00:00 14,4 5,7 9 5 13 7 ZZW 1029,3 34 0,0
20.05.2018 15:00:00 14,3 4,8 9 5 13 7 ZZW 1029,7 34 0,0
20.05.2018 14:00:00 14,3 5,4 9 5 14 8 ZZW 1029,8 39 0,0
20.05.2018 13:00:00 13,7 6,5 10 5 14 8 ZZW 1029,9 35 0,0
20.05.2018 12:00:00 13,8 7,6 11 6 14 8 Z 1029,7 31 0,0
20.05.2018 11:00:00 13,2 7,4 10 5 13 7 ZO 1029,6 49 0,0
20.05.2018 10:00:00 13,6 8,9 9 5 11 6 OZO 1029,3 41 0,0
20.05.2018 09:00:00 12,9 9,0 6 3 8 5 ZO 1028,7 41 0,0
20.05.2018 08:00:00 13,4 8,0 3 1 5 3 Z 1028,2 41 0,0
20.05.2018 07:00:00 13,1 8,0 0 0 9 5 N 1027,9 43 0,0
20.05.2018 06:00:00 9,9 7,7 2 1 13 7 N 1027,6 43 0,0
20.05.2018 05:00:00 10,8 7,3 7 4 13 7 WNW 1027,0 50 0,0
20.05.2018 04:00:00 11,0 4,7 7 4 11 6 W 1026,7 50 0,0
20.05.2018 03:00:00 11,1 4,8 9 5 11 6 W 1026,5 50 0,0
20.05.2018 02:00:00 11,0 4,0 5 3 8 4 WZW 1026,4 50 0,0
20.05.2018 01:00:00 11,0 3,1 5 3 6 3 WZW 1026,3 50 0,0
20.05.2018 00:00:00 9,5 5,7 0 0 6 3 N 1026,1 50 0,0
19.05.2018 23:00:00 7,9 2,8 4 2 8 4 O 1025,9 50 0,0
19.05.2018 22:00:00 10,5 3,8 3 1 11 6 NNO 1025,6 50 0,0
19.05.2018 21:00:00 8,8 3,4 8 4 11 6 NO 1025,2 50 0,0
19.05.2018 20:00:00 11,7 4,7 8 4 14 8 O 1024,8 50 0,0
19.05.2018 19:00:00 12,1 4,1 9 5 19 10 O 1024,8 47 0,0
19.05.2018 18:00:00 12,3 5,0 13 7 19 10 O 1024,8 47 0,0
19.05.2018 17:00:00 12,9 4,8 11 6 21 11 O 1024,8 42 0,0
19.05.2018 16:00:00 13,2 5,8 8 4 27 15 OZO 1024,8 44 0,0
19.05.2018 15:00:00 13,5 5,9 17 9 31 17 ONO 1024,4 45 0,0
19.05.2018 14:00:00 13,7 6,5 23 13 31 17 ONO 1024,2 39 0,0
19.05.2018 13:00:00 13,4 5,5 25 14 30 16 ONO 1024,3 36 0,0
19.05.2018 12:00:00 14,0 4,8 11 6 23 13 O 1024,4 39 0,0

tt = temperatuur
td = dauwpunt
ff = windsnelheid
fx = windstoten
dd = windrichting
ppp = luchtdruk
vv = zicht
rr = neerslag

Weerstations in de omgeving